Regional Weather Roundup
Issued by NWS

Home | Current Version | Previous Version | Text Only | Print | Product List | Glossary Off
Versions: 1 2 3 4 5 6 7 8 9 10 11 12 13 14 15 16 17 18 19 20 21 22 23 24 25 26 27 28 29 30 31 32 33 34 35 36 37 38 39 40 41 42 43 44 45 46 47 48 49 50

000
ASUS43 KMPX 221601
RWRMN
WEATHER ROUNDUP FOR MINNESOTA
NATIONAL WEATHER SERVICE TWIN CITIES/CHANHASSEN MN
1000 AM CST MON DEC 22 2014


NOTE: "FAIR" INDICATES FEW OR NO CLOUDS BELOW 12,000 FEET WITH NO
SIGNIFICANT WEATHER AND/OR OBSTRUCTIONS TO VISIBILITY. N/A MEANS
CURRENT SKY AND/OR WEATHER CONDITIONS ARE NOT AVAILABLE.

MNZ060>063-068>070-221700-
   Twin Cities Metro

CITY           SKY/WX    TMP DP  RH WIND       PRES   REMARKS
TWIN CITIES    LGT RAIN  36  33  89 SE13      29.66S FOG
ST PAUL        LGT RAIN  36  34  92 SE13      29.68S FOG
CRYSTAL        LGT RAIN  37  34  89 SE15G21   29.64S FOG
BLAINE         LGT RAIN  37  37 100 SE15      29.65  FOG
LAKEVILLE      LGT RAIN  34  34 100 SE14      29.65S WCI  24
EDEN PRAIRIE   LGT RAIN  36  34  92 SE16      29.63S FOG
SOUTH ST PAUL  DRIZZLE   36  35  95 SE9       29.67S
LAKE ELMO      CLOUDY    36  34  93 SE12      29.68R FOG
$$
MNZ001>005-007-008-013>017-022>024-027-028-221700-
   Northwest Minnesota

CITY           SKY/WX    TMP DP  RH WIND       PRES   REMARKS
BEMIDJI        CLOUDY    34  34  99 E12       29.58R FOG     WCI  26
HALLOCK        MOSUNNY   36  34  93 E8        29.57S FOG
ROSEAU         CLOUDY    36  30  80 E9        29.60S HAZE
WARROAD        CLOUDY    34  30  86 E7        29.62R FOG     WCI  28
THIEF RVR FALL CLOUDY    36  34  93 E12       29.56S
CROOKSTON      CLOUDY    36  34  93 E10       29.55S FOG
FOSSTON        DRIZZLE   34  32  93 E7        29.56R WCI  28
DETROIT LAKES  DRIZZLE   36  36 100 SE12      29.53S
MOORHEAD       DRIZZLE   37  37 100 SE5       29.52R
PARK RAPIDS    CLOUDY    36  35  96 SE15      29.56R FOG
MAHNOMEN       LGT RAIN  35  35  99 E7        29.53S WCI  29
$$
MNZ006-009>011-018-025>026-221700-
   North Central Minnesota

CITY           SKY/WX    TMP DP  RH WIND       PRES   REMARKS
BAUDETTE       CLOUDY    34  32  92 E10       29.62S WCI  26
FLAG ISLAND    CLOUDY    34  32  93 E8        29.63R FOG     WCI  27
INTL FALLS     MIX PCPN  33  32  96 E7        29.66R FOG     WCI  27
WASKISH        CLOUDY    36  34  93 E5        29.62R FOG
BIG FORK       CLOUDY    36  34  93 SE7       29.64R FOG
LONGVILLE      DRIZZLE   36  36 100 SE6       29.60R
GRAND RAPIDS   CLOUDY    34  32  93 SE8       29.64R WCI  27
CRANE LAKE     RAIN      34  32  93 CALM      29.71R
ORR            LGT RAIN  34  30  86 SE5       29.65R WCI  30
COOK           LGT SNOW  34  32  93 SE5       29.68S WCI  30
WALKER         CLOUDY    34  34  99 SE5       29.58R FOG     WCI  30
$$
MNZ012-019>021-037-221700-
   Northeast Minnesota

CITY           SKY/WX    TMP DP  RH WIND       PRES   REMARKS
DULUTH         SNOW      34  32  92 E12       29.69S VSB 1/4 WCI  25
ELY            LGT SNOW  34  32  93 SE7       29.70S WCI  28
HIBBING        LGT SNOW  34  31  88 SE9       29.67R FOG     WCI  27
EVELETH        LGT SNOW  34  32  93 SE5       29.69R WCI  30
DULUTH HARBOR  MIX PCPN  36  34  93 CALM      29.73S
TWO HARBORS    CLOUDY    36  30  80 E6        29.71S
SILVER BAY     MIX PCPN  34  34 100 CALM      29.73R
GRAND MARAIS     N/A     37  35  92 S12       29.80S
G MARAIS ARPRT MIX PCPN  30  28  93 S5        29.76R VSB<1/4 WCI  25
$$
MNZ029>031-032-039>041-046>048-054>057-064-221700-
   West Central Minnesota

CITY           SKY/WX    TMP DP  RH WIND       PRES   REMARKS
FERGUS FALLS   DRIZZLE   37  37 100 SE12      29.54S
WHEATON        DRIZZLE   34  34 100 SE12      29.51R WCI  25
MORRIS         CLOUDY    37  36  93 SE17      29.50R FOG
ALEXANDRIA     FOG       36  35  96 SE13      29.54R VSB 1
ELBOW LAKE     DRIZZLE   37  37 100 SE10G17   29.51R
WADENA         CLOUDY    36  34  93 SE12      29.55R FOG
GLENWOOD       DRIZZLE   36  36 100 SE15      29.54S
APPLETON       DRIZZLE   39  37  93 SE12      29.50S
BENSON         MIX PCPN  37  36  93 S15       29.52S
ORTONVILLE     DRIZZLE   37  36  93 SE14      29.48S
MADISON        LGT RAIN  41  39  93 SE14      29.48S
WILLMAR        LGT RAIN  37  36  93 SE15      29.56R
$$
MNZ033>034-036-042>043-049>051-058-059-221700-
   Central Minnesota

CITY           SKY/WX    TMP DP  RH WIND       PRES   REMARKS
ST CLOUD       CLOUDY    39  35  86 SE14G20   29.61R FOG
SAUK CENTRE    CLOUDY    36  36 100 SE13G20   29.56S FOG
PAYNESVILLE    DRIZZLE   34  34 100 E12       29.58R WCI  25
AITKIN         MIX PCPN  37  34  87 SE8       29.62R
PINE RIVER     DRIZZLE   36  36 100 SE10      29.64R
BRAINERD       CLOUDY    36  35  96 SE7       29.61S FOG
STAPLES        CLOUDY    36  36 100 SE7       29.58R FOG
LONG PRAIRIE   MIX PCPN  34  34 100 SE10      29.57R WCI  26
LITTLE FALLS   CLOUDY    34  34 100 SE9       29.60R FOG     WCI  26
LITCHFIELD     DRIZZLE   37  37 100 SE13      29.59R
BUFFALO        DRIZZLE   36  34  92 SE10G20   29.63S
MAPLE LAKE     DRIZZLE   37  37  98 SE7       29.62R
$$
MNZ037-044-045-052-053-221700-
   East Central Minnesota

CITY           SKY/WX    TMP DP  RH WIND       PRES   REMARKS
PRINCETON      DRIZZLE   37  36  93 SE12      29.64S
MORA           CLOUDY    34  34 100 SE8       29.67S WCI  27
CAMBRIDGE      DRIZZLE   37  30  75 SE6       29.64S
RUSH CITY      CLOUDY    35  34  94 SE7       29.68R WCI  29
MOOSE LAKE     CLOUDY    34  34 100 SE5       29.67R FOG     WCI  30
HINCKLEY       CLOUDY    36  36 100 SE10      29.67S FOG
CLOQUET        SNOW      34  32  93 E6        29.69R VSB 1/4 WCI  29
MCGREGOR       CLOUDY    36  34  93 SE12G17   29.65S
$$
MNZ071>073-080-081-089-090-097-098-221700-
   Southwest Minnesota

CITY           SKY/WX    TMP DP  RH WIND       PRES   REMARKS
MONTEVIDEO     LGT RAIN  37  37 100 S14       29.52S
GRANITE FALLS  LGT RAIN  38  38  98 SE13G18   29.53S
CANBY          LGT RAIN  38  38  99 SE12      29.48S
MARSHALL       CLOUDY    39  36  87 SE14      29.49S
REDWOOD FALLS  LGT RAIN  39  37  92 SE17      29.53S FOG
OLIVIA         DRIZZLE   39  37  93 SE13      29.54S
PIPESTONE      DRIZZLE   37  37 100 S13       29.44S
WINDOM         DRIZZLE   37  37 100 SE15G21   29.52S
WORTHINGTON    CLOUDY    37 -11  12 SE17      29.50S
JACKSON        CLOUDY    37  36  93 SE16      29.54S FOG
TRACY          DRIZZLE   39  38  96 SE14      29.50S
SLAYTON        DRIZZLE   37  37 100 SE17      29.48S
$$
MNZ065>067-074>077-082>085-091>093-221700-
   South Central Minnesota

CITY           SKY/WX    TMP DP  RH WIND       PRES   REMARKS
MANKATO        CLOUDY    37  32  81 SE18      29.60S
NEW ULM        LGT RAIN  37  37 100 SE16      29.57S
FAIRMONT       CLOUDY    37  34  87 SE20      29.56S
GLENCOE        DRIZZLE   38  37  99 SE13      29.60S
FARIBAULT      LGT RAIN  36  34  93 SE16      29.64F
OWATONNA       LGT RAIN  36  34  93 SE14G20   29.64S
WASECA         RAIN      36  36 100 SE15G22   29.63S
ALBERT LEA     LGT RAIN  36  36 100 SE15      29.62S
$$
MNZ078>079-086>088-094>096-221700-
   Southeast Minnesota

CITY           SKY/WX    TMP DP  RH WIND       PRES   REMARKS
ROCHESTER      LGT SNOW  34  32  92 SE14      29.68S FOG     WCI  25
RED WING       CLOUDY    36  36 100 SE12      29.69S FOG
STANTON        DRIZZLE   37  34  87 SE13      29.64F
DODGE CENTER   MIX PCPN  34  34 100 SE17      29.65F WCI  23
WINONA         CLOUDY    36  32  87 SE9       29.73F FOG
AUSTIN         MIX PCPN  34  34 100 SE12G17   29.65S WCI  25
PRESTON        CLOUDY    33  32  96 SE12      29.69F FOG     WCI  24
$$
ABBREVIATIONS USED IN REMARKS
   TC - TEMPERATURES IN CELSIUS
  WCI - WIND CHILL INDEX
   HX - HEAT INDEX
  VSB - VISIBILITY
$$



USA.gov is the U.S. government's official web portal to all federal, state and local government web resources and services.